Location: Владивосток
(43.1151°N, 131.8856°E)
Time: 04:18:41
(UTC+10:00)

ASUSAT - Visible Passes

Search period start: 08 October 2024 00:00
Search period end: 18 October 2024 00:00
Orbit: 740 x 792 km, 100.2° (Epoch: 07 October)

Date Brightness Start Highest point End Pass type
(mag) Time Alt. Az. Time Alt. Az. Time Alt. Az.
08 Oct 6.6 05:23:18 10° SE 05:28:09 56° ENE 05:33:07 10° N visible
08 Oct 6.3 19:09:54 10° NNE 19:15:07 80° WNW 19:20:19 10° SSW visible
08 Oct 9.1 20:51:02 10° NNW 20:53:04 12° NW 20:55:07 10° WNW visible
09 Oct 8.0 04:47:45 10° ESE 04:51:54 27° ENE 04:56:06 10° N visible
09 Oct 6.4 06:25:51 10° S 06:30:30 40° W 06:35:15 10° NNW visible
09 Oct 8.4 20:12:56 10° N 20:17:03 24° WNW 20:21:11 10° WSW visible
10 Oct 9.0 04:13:28 10° E 04:15:51 14° NE 04:18:16 10° NNE visible
10 Oct 5.9 05:48:54 10° SSE 05:53:54 88° WSW 05:59:00 10° NNW visible
10 Oct 7.1 19:35:50 10° N 19:40:51 49° WNW 19:45:50 10° SW visible
11 Oct 7.2 05:12:48 10° SE 05:17:30 43° ENE 05:22:17 10° N visible
11 Oct 7.0 06:52:27 10° SSW 06:56:28 24° W 07:00:32 10° NW visible
11 Oct 6.1 18:59:11 10° NNE 19:04:25 79° ESE 19:09:38 10° SSW visible
11 Oct 8.9 20:39:32 10° NNW 20:42:34 16° WNW 20:45:36 10° W visible
12 Oct 8.4 04:37:36 10° ESE 04:41:19 21° ENE 04:45:05 10° NNE visible
12 Oct 6.1 06:14:51 10° S 06:19:43 53° WSW 06:24:42 10° NNW visible
12 Oct 8.0 20:01:57 10° N 20:06:28 31° WNW 20:10:59 10° SW visible
13 Oct 9.2 04:04:26 10° ENE 04:05:21 10° NE 04:06:15 10° NE visible
13 Oct 6.2 05:38:12 10° SSE 05:43:11 71° ENE 05:48:16 10° NNW visible
13 Oct 6.6 19:25:01 10° N 19:30:11 64° WNW 19:35:19 10° SSW visible
14 Oct 7.6 05:02:24 10° SE 05:06:52 33° ENE 05:11:24 10° N visible
14 Oct 6.7 06:41:11 10° SSW 06:45:37 32° W 06:50:09 10° NW visible
14 Oct 6.1 18:48:31 10° NNE 18:53:41 60° ESE 18:58:49 10° S visible
14 Oct 8.6 20:28:18 10° NNW 20:32:01 20° WNW 20:35:43 10° WSW visible
15 Oct 8.7 04:27:36 10° E 04:30:45 17° ENE 04:33:55 10° NNE visible
15 Oct 5.9 06:03:57 10° S 06:08:57 71° WSW 06:14:03 10° NNW visible
15 Oct 7.5 19:51:01 10° N 19:55:50 40° WNW 20:00:39 10° SW visible
16 Oct 6.7 05:27:36 10° SE 05:32:29 54° ENE 05:37:28 10° N visible
16 Oct 6.2 19:14:14 10° NNE 19:19:28 84° WNW 19:24:40 10° SSW visible
16 Oct 9.0 20:55:11 10° NNW 20:57:27 13° NW 20:59:43 10° W visible
17 Oct 8.1 04:52:06 10° ESE 04:56:14 26° ENE 05:00:25 10° N visible
17 Oct 6.4 06:30:03 10° S 06:34:47 42° W 06:39:38 10° NNW visible
17 Oct 8.3 20:17:12 10° N 20:21:25 25° WNW 20:25:37 10° WSW visible
